Estevan Point, British Columbia

5:31 AM PDT on October 17, 2017 (GMT -0700)
Estevan Point

Weather History for CWEB - January, 2013

Change the Weather History Date:

Thursday, January 3, 2013

  Actual Average Record
Temperature  
Mean Temperature 40 °F -  
Max Temperature 47 °F - - ()
Min Temperature 34 °F - - ()
Degree Days  
Heating Degree Days 24    
Moisture  
Dew Point -    
Average Humidity    
Maximum Humidity    
Minimum Humidity    
Precipitation  
Precipitation 0.08 in - - ()
Sea Level Pressure  
Sea Level Pressure 30.04 in    
Wind  
Wind Speed 9 mph ()    
Max Wind Speed 17 mph    
Max Gust Speed 39 mph    
T = Trace of Precipitation, MM = Missing Value Source: Averaged Metar Reports

Daily Weather History Graph

Daily Weather History Graph

Search for Another Location

Airport or City:

Trip Planner

Search our weather history database for the weather conditions in past years. The results will help you decide how hot, cold, wet, or windy it might be!

Date:

Astronomy

Jan. 03, 2013 Rise Set
Actual Time 8:21 AM PST 4:40 PM PST
Civil Twilight 7:44 AM PST 5:17 PM PST
Nautical Twilight 7:03 AM PST 5:58 PM PST
Astronomical Twilight 6:24 AM PST 6:37 PM PST
Moon No Moon Rise 10:59 AM PST (1/3)
Length of Visible Light 9h 33m
Length of Day
8h 18m
Waning Gibbous, 64% of the Moon is Illuminated
Jan 3
Waning Gibbous
Jan 4
Last Quarter
Jan 11
New
Jan 18
First Quarter
Jan 26
Full

Hourly Weather History & Observations

Time (PST) Temp. Windchill Dew Point Humidity Pressure Visibility Wind Dir Wind Speed Gust Speed Precip Events Conditions
12:00 AM 37.2 °F 30.6 °F - N/A% 30.14 in - East 9.2 mph - N/A   Unknown
1:00 AM 36 °F - - % 30.12 in - East 9.2 mph - -  
1:00 AM 35.8 °F 28.8 °F - N/A% 30.12 in - East 9.2 mph - N/A   Unknown
2:00 AM 34.3 °F 27.0 °F - N/A% 30.08 in - East 9.2 mph - N/A   Unknown
3:00 AM 38.1 °F 31.2 °F - N/A% 30.08 in - East 10.4 mph - N/A   Unknown
4:00 AM 40 °F - - % 30.07 in - East 8.1 mph - -  
4:00 AM 40.5 °F 35.1 °F - N/A% 30.07 in - East 8.1 mph - N/A   Unknown
5:00 AM 40.8 °F 36.2 °F - N/A% 30.06 in - ESE 6.9 mph - N/A   Unknown
6:00 AM 41.4 °F 35.2 °F - N/A% 30.05 in - ESE 10.4 mph 17.3 mph N/A   Unknown
7:00 AM 38 °F - - % 30.04 in - ENE 8.1 mph - -  
7:00 AM 37.8 °F 31.8 °F - N/A% 30.04 in - ENE 8.1 mph - N/A   Unknown
8:00 AM 38.1 °F 31.2 °F - N/A% 30.04 in - East 10.4 mph 17.3 mph N/A   Unknown
9:00 AM 40.1 °F 33.6 °F - N/A% 30.03 in - East 10.4 mph 18.4 mph N/A   Unknown
10:00 AM 40 °F - - % 30.04 in - East 9.2 mph - -  
10:00 AM 40.3 °F 34.4 °F - N/A% 30.04 in - East 9.2 mph 19.6 mph N/A   Unknown
11:00 AM 41.7 °F 36.7 °F - N/A% 30.03 in - East 8.1 mph - N/A   Unknown
12:00 PM 45.3 °F 39.7 °F - N/A% 30.01 in - East 11.5 mph 21.9 mph N/A   Unknown
1:00 PM 46 °F - - % 30.00 in - East 12.7 mph - -  
1:00 PM 45.7 °F 39.8 °F - N/A% 30.00 in - East 12.7 mph 19.6 mph N/A   Unknown
2:00 PM 46.4 °F 41.1 °F - N/A% 29.99 in - East 11.5 mph 19.6 mph N/A   Unknown
3:00 PM 46.6 °F - - N/A% 29.99 in - ESE 12.7 mph 24.2 mph N/A   Unknown
4:00 PM 47 °F - - % 30.00 in - East 13.8 mph - -  
4:00 PM 46.6 °F - - N/A% 30.00 in - East 13.8 mph 20.7 mph N/A   Unknown
5:00 PM 47.3 °F - - N/A% 29.99 in - East 17.3 mph 27.6 mph N/A   Unknown
6:00 PM 44.8 °F 37.4 °F - N/A% 29.99 in - East 17.3 mph 39.1 mph 0.01 in   Unknown
7:00 PM 43 °F - - % 30.00 in - East 13.8 mph - -  
7:00 PM 43.2 °F 36.2 °F - N/A% 30.00 in - East 13.8 mph 24.2 mph 0.02 in   Unknown
8:00 PM 42.8 °F 35.8 °F - N/A% 30.01 in - East 13.8 mph 24.2 mph 0.02 in   Unknown
9:00 PM 43.5 °F 37.1 °F - N/A% 30.02 in - East 12.7 mph 25.3 mph 0.01 in   Unknown
10:00 PM 44 °F - - % 30.03 in - East 11.5 mph - -  
10:00 PM 43.7 °F 37.7 °F - N/A% 30.03 in - East 11.5 mph 25.3 mph 0.01 in   Unknown
11:00 PM 43.5 °F 38.3 °F - N/A% 30.04 in - East 9.2 mph - N/A   Unknown